Retour au catalogue

OPS 4078

DMSP 4B F2

ActifMétéoSSO
NORAD 3510·PAYLOAD·🇺🇸 United States

Lancé Oct 23, 1968 depuis Vandenberg Space Force Base

Loading…

Prochains Passages (prochaines 24 heures)

TLE

FraisSource: Space-Track

Époque: Sep 14, 2026, 08:04 UTC

1 03510U 68092A   26257.33634318  .00000068  00000-0  44454-4 0  9996
2 03510  98.5831  18.3329 0030747  67.4154 293.0275 14.28272791  9931

Suivez OPS 4078 en temps réel avec AllMySat

Download on the App Store